Weather in Elche

Spain     38°15′31″N   0°42′21″E
temp.,
°C
wind,
m/s
gust,
m/s
humid.,
%
clouds,
%
prec.,
mm/h
press.,
hPa
HPBL,
m
11 may, tue
tue1123:00+18w81546100 0.1 1013643
02:00+16wnw8155097 0.1 1013778
05:00+14wnw814530 0.0 1015739
08:00+13wnw914530 0.0 1018984
11:00+17nw1113390 0.0 10191400
14:00+20wnw1113260 0.0 10191769
17:00+23wnw810212 0.0 10182491
20:00+22nw58260 0.0 1018404
12 may, wed
wed1223:00+15sw36640 0.0 1021141
02:00+15w22560 0.0 102022
05:00+15w22460 0.0 101812
08:00+16nw11460 0.0 101811
11:00+21ssw2333100 0.0 1018802
14:00+25sw26255 0.0 10162182
17:00+26ssw272996 0.0 10132462
20:00+24nw7103316 0.0 10151147
13 may, thu
thu1323:00+21nw71334100 0.0 1016545
02:00+19nw484118 0.0 1016165
05:00+17nw334716 0.0 101624
08:00+17nnw4114781 0.0 1017474
11:00+22nw56332 0.0 10161306
14:00+25sw45272 0.0 10142113
17:00+26s773278 0.0 10121623
20:00+22ssw673948 0.0 1012612
14 may, fri
fri1423:00+19n11521 0.0 101311
02:00+19wnw344920 0.0 101260
05:00+19nw4755100 0.0 1011147
08:00+18nw101560100 0.0 1013664
11:00+22nw10113730 0.0 10141318
14:00+26nw79274 0.0 10142361
17:00+25e45337 0.0 10131311
20:00+19se446182 0.0 1016523
15 may, sat
sat1523:00+16sse017798 0.0 101945
02:00+15nw117816 0.0 101811
05:00+14w117916 0.0 101711
08:00+16w127297 0.0 101775
11:00+22sw345069 0.0 1017693
14:00+27s443482 0.0 10161370
17:00+28sse653382 0.0 1014945
20:00+25se334158 0.0 1014255